Zakynthos, Greece

1:06 AM EEST on October 19, 2017 (GMT +0300)
Dionysios Solomos

Weather History for LGZA - August, 2017

Change the Weather History Date:

Sunday, August 13, 2017

  Actual Average Record
Temperature  
Mean Temperature 82 °F -  
Max Temperature 86 °F 85 °F 100 °F (2014)
Min Temperature 77 °F 68 °F 64 °F (2006)
Cooling Degree Days 16    
Growing Degree Days 32 (Base 50)    
Moisture  
Dew Point 63 °F    
Average Humidity 55    
Maximum Humidity 69    
Minimum Humidity 40    
Precipitation  
Precipitation 0.00 in 0.02 in - ()
Sea Level Pressure  
Sea Level Pressure 29.81 in    
Wind  
Wind Speed 12 mph ()    
Max Wind Speed 23 mph    
Max Gust Speed 33 mph    
Visibility 6.0 miles    
Events      
Averages and records for this station are not official NWS values.
T = Trace of Precipitation, MM = Missing Value Source: Averaged Metar Reports

Daily Weather History Graph

Daily Weather History Graph

Search for Another Location

Airport or City:

Trip Planner

Search our weather history database for the weather conditions in past years. The results will help you decide how hot, cold, wet, or windy it might be!

Date:

Astronomy

Aug. 13, 2017 Rise Set
Actual Time 6:50 AM EEST 8:31 PM EEST
Civil Twilight 6:22 AM EEST 8:59 PM EEST
Nautical Twilight 5:48 AM EEST 9:33 PM EEST
Astronomical Twilight 5:12 AM EEST 10:09 PM EEST
Moon No Moon Rise 12:23 PM EEST (8/13)
Length of Visible Light 14h 37m
Length of Day
13h 41m
Waning Gibbous, 68% of the Moon is Illuminated
Aug 13
Waning Gibbous
Aug 15
Last Quarter
Aug 21
New
Aug 29
First Quarter
Sep 6
Full

Hourly Weather History & Observations

Time (EEST) Temp. Heat Index Dew Point Humidity Pressure Visibility Wind Dir Wind Speed Gust Speed Precip Events Conditions
4:20 AM 78.8 °F - 64.4 °F 61% 29.80 in - NW 8.1 mph - N/A   Clear
4:50 AM 78.8 °F - 64.4 °F 61% 29.77 in - WNW 8.1 mph - N/A   Clear
5:20 AM 77.0 °F - 66.2 °F 69% 29.77 in - WNW 5.8 mph - N/A   Clear
5:50 AM 77.0 °F - 66.2 °F 69% 29.77 in - NNW 4.6 mph - N/A   Clear
6:20 AM 77.0 °F - 66.2 °F 69% 29.77 in - NNW 4.6 mph - N/A   Clear
6:50 AM 78.8 °F - 64.4 °F 61% 29.77 in 6.2 mi WNW 4.6 mph - N/A   Partly Cloudy
7:20 AM 78.8 °F - 64.4 °F 61% 29.80 in 6.2 mi Variable 3.5 mph - N/A   Partly Cloudy
7:50 AM 78.8 °F - 68.0 °F 69% 29.80 in 6.2 mi NW 9.2 mph - N/A   Partly Cloudy
8:20 AM 80.6 °F 82.7 °F 66.2 °F 61% 29.80 in 6.2 mi NW 12.7 mph - N/A   Partly Cloudy
8:50 AM 80.6 °F 82.3 °F 64.4 °F 58% 29.80 in 6.2 mi NW 12.7 mph - N/A   Partly Cloudy
9:20 AM 80.6 °F 82.3 °F 64.4 °F 58% 29.80 in 6.2 mi NW 15.0 mph - N/A   Partly Cloudy
9:50 AM 80.6 °F 81.8 °F 62.6 °F 54% 29.80 in 6.2 mi NW 15.0 mph - N/A   Partly Cloudy
10:20 AM 82.4 °F 83.4 °F 62.6 °F 51% 29.80 in 6.2 mi NW 17.3 mph - N/A   Partly Cloudy
10:50 AM 82.4 °F 83.4 °F 62.6 °F 51% 29.80 in 6.2 mi NW 17.3 mph - N/A   Scattered Clouds
11:20 AM 82.4 °F 83.4 °F 62.6 °F 51% 29.80 in 6.2 mi NW 16.1 mph - N/A   Scattered Clouds
11:50 AM 82.4 °F 83.4 °F 62.6 °F 51% 29.80 in 6.2 mi NW 18.4 mph - N/A   Scattered Clouds
12:20 PM 82.4 °F 83.4 °F 62.6 °F 51% 29.80 in 6.2 mi NW 19.6 mph - N/A   Scattered Clouds
12:50 PM 82.4 °F 82.5 °F 59.0 °F 45% 29.83 in 6.2 mi WNW 17.3 mph - N/A   Scattered Clouds
1:20 PM 82.4 °F 82.5 °F 59.0 °F 45% 29.83 in 6.2 mi NW 20.7 mph 32.2 mph N/A   Scattered Clouds
1:50 PM 84.2 °F 83.5 °F 57.2 °F 40% 29.83 in 6.2 mi NW 23.0 mph - N/A   Scattered Clouds
2:20 PM 84.2 °F 83.5 °F 57.2 °F 40% 29.83 in 5.6 mi NW 20.7 mph - N/A   Scattered Clouds
2:50 PM 86.0 °F 86.1 °F 60.8 °F 43% 29.83 in 5.0 mi NW 21.9 mph - N/A   Scattered Clouds
3:20 PM 86.0 °F 86.1 °F 60.8 °F 43% 29.83 in 5.0 mi WNW 23.0 mph - N/A   Scattered Clouds
3:50 PM 86.0 °F 86.1 °F 60.8 °F 43% 29.83 in 5.0 mi NW 21.9 mph - N/A   Scattered Clouds
4:20 PM 86.0 °F 86.1 °F 60.8 °F 43% 29.83 in 5.6 mi NW 18.4 mph - N/A   Scattered Clouds
4:50 PM 86.0 °F 87.3 °F 64.4 °F 48% 29.80 in 5.6 mi WNW 21.9 mph 33.4 mph N/A   Scattered Clouds
5:20 PM 86.0 °F 87.3 °F 64.4 °F 48% 29.83 in 5.6 mi WNW 19.6 mph 31.1 mph N/A   Scattered Clouds
5:50 PM 86.0 °F 87.3 °F 64.4 °F 48% 29.80 in 6.2 mi WNW 20.7 mph - N/A   Scattered Clouds
6:20 PM 86.0 °F 87.3 °F 64.4 °F 48% 29.83 in 6.2 mi NW 20.7 mph - N/A   Scattered Clouds
6:50 PM 84.2 °F 85.6 °F 64.4 °F 51% 29.83 in 6.2 mi WNW 20.7 mph - N/A   Scattered Clouds
7:20 PM 84.2 °F 85.6 °F 64.4 °F 51% 29.83 in 6.2 mi NW 16.1 mph - N/A   Scattered Clouds
7:50 PM 82.4 °F 84.6 °F 66.2 °F 58% 29.83 in 6.2 mi NW 16.1 mph - N/A   Partly Cloudy
8:20 PM 78.8 °F - 64.4 °F 61% 29.83 in 6.2 mi NNW 13.8 mph - N/A   Partly Cloudy
8:50 PM 78.8 °F - 64.4 °F 61% 29.83 in 6.2 mi NW 19.6 mph - N/A   Partly Cloudy
9:20 PM 78.8 °F - 64.4 °F 61% 29.83 in 6.2 mi NW 19.6 mph - N/A   Partly Cloudy
9:50 PM 77.0 °F - 66.2 °F 69% 29.83 in 6.2 mi NNW 18.4 mph - N/A   Partly Cloudy
10:20 PM 77.0 °F - 66.2 °F 69% 29.83 in 6.2 mi NNW 18.4 mph - N/A   Partly Cloudy